,,,PA_Meas_PMT16A,,PR_Meas_QMR101_102,,RH_Meas_QMH101,,SR_Meas_QMS101,,TA_Meas_QMH101,,GenWind,,GenWind,
date,time,status,PA,status,PR,status,RH,status,SR,status,TA,status,DirAvg,status,SpdAvg,
2009-08-31, 00:00:04,VALID,1001.3,VALID,0,VALID,82.3617,VALID,0,VALID,23.8201,VALID,147,VALID,1.92266,
2009-08-31, 00:01:04,VALID,1001.31,VALID,0,VALID,82.3999,VALID,0,VALID,23.7988,VALID,153,VALID,1.47734,
2009-08-31, 00:02:04,VALID,1001.27,VALID,0,VALID,82.3694,VALID,0,VALID,23.8006,VALID,147,VALID,1.88047,
2009-08-31, 00:03:04,VALID,1001.26,VALID,0,VALID,82.3389,VALID,0,VALID,23.8201,VALID,160,VALID,2.00078,
2009-08-31, 00:04:04,VALID,1001.27,VALID,0,VALID,82.4075,VALID,0,VALID,23.8183,VALID,157,VALID,1.44492,
2009-08-31, 00:05:04,VALID,1001.28,VALID,0,VALID,82.4152,VALID,0,VALID,23.8006,VALID,147,VALID,1.48203,
2009-08-31, 00:06:04,VALID,1001.29,VALID,0,VALID,82.3999,VALID,0,VALID,23.7811,VALID,138,VALID,1.85586,
2009-08-31, 00:07:04,VALID,1001.26,VALID,0,VALID,82.1023,VALID,0,VALID,23.7811,VALID,136,VALID,2.05664,
2009-08-31, 00:08:04,VALID,1001.29,VALID,0,VALID,82.0337,VALID,0,VALID,23.7793,VALID,139,VALID,1.85703,
2009-08-31, 00:09:04,VALID,1001.28,VALID,0,VALID,81.8277,VALID,0,VALID,23.7988,VALID,140,VALID,2.15391,
2009-08-31, 00:10:04,VALID,1001.31,VALID,0,VALID,81.6064,VALID,0,VALID,23.8183,VALID,134,VALID,1.85586,
2009-08-31, 00:11:04,VALID,1001.3,VALID,0,VALID,81.4691,VALID,0,VALID,23.8768,VALID,124,VALID,2.21055,
2009-08-31, 00:12:04,VALID,1001.29,VALID,0,VALID,81.4157,VALID,0,VALID,23.8768,VALID,137,VALID,1.86484,
2009-08-31, 00:13:04,VALID,1001.26,VALID,0,VALID,81.4309,VALID,0.112286,VALID,23.8555,VALID,140,VALID,1.98867,
2009-08-31, 00:14:04,VALID,1001.23,VALID,0,VALID,81.4004,VALID,0,VALID,23.836,VALID,145,VALID,1.87734,
2009-08-31, 00:15:04,VALID,1001.23,VALID,0,VALID,81.2402,VALID,0,VALID,23.8963,VALID,159,VALID,2.05117,
2009-08-31, 00:16:04,VALID,1001.14,VALID,0,VALID,80.8282,VALID,0,VALID,23.8945,VALID,150,VALID,2.17148,
2009-08-31, 00:17:04,VALID,1001.15,VALID,0,VALID,80.4772,VALID,0,VALID,23.9354,VALID,131,VALID,2.08594,
2009-08-31, 00:18:04,VALID,1001.13,VALID,0,VALID,80.4162,VALID,0,VALID,23.9744,VALID,138,VALID,2.04805,
2009-08-31, 00:19:04,VALID,1001.13,VALID,0,VALID,80.2789,VALID,0,VALID,23.9921,VALID,148,VALID,1.76367,
2009-08-31, 00:20:04,VALID,1001.13,VALID,0,VALID,80.3475,VALID,0,VALID,23.9531,VALID,149,VALID,2.11484,
2009-08-31, 00:21:04,VALID,1001.18,VALID,0,VALID,80.6375,VALID,0,VALID,23.9549,VALID,157,VALID,2.00039,
2009-08-31, 00:22:04,VALID,1001.15,VALID,0,VALID,80.7138,VALID,0,VALID,23.9159,VALID,150,VALID,1.7125,
2009-08-31, 00:23:04,VALID,1001.15,VALID,0,VALID,80.6375,VALID,0,VALID,23.8963,VALID,143,VALID,1.47891,
2009-08-31, 00:24:04,VALID,1001.11,VALID,0,VALID,80.5688,VALID,0,VALID,23.8963,VALID,135,VALID,1.64219,
2009-08-31, 00:25:04,VALID,1001.12,VALID,0,VALID,80.1568,VALID,0,VALID,23.9159,VALID,144,VALID,1.84023,
2009-08-31, 00:26:04,VALID,1001.11,VALID,0,VALID,80.2712,VALID,0,VALID,23.9159,VALID,150,VALID,1.91602,
2009-08-31, 00:27:04,VALID,1001.09,VALID,0,VALID,80.4849,VALID,0,VALID,23.8945,VALID,156,VALID,1.93125,
2009-08-31, 00:28:04,VALID,1001.04,VALID,0,VALID,80.6298,VALID,0,VALID,23.8963,VALID,140,VALID,1.45742,
2009-08-31, 00:29:04,VALID,1001.04,VALID,0,VALID,80.668,VALID,0,VALID,23.8555,VALID,131,VALID,1.12422,
2009-08-31, 00:30:04,VALID,1001.01,VALID,0,VALID,80.7443,VALID,0,VALID,23.8378,VALID,123,VALID,1.51992,
2009-08-31, 00:31:04,VALID,1001.03,VALID,0,VALID,80.7595,VALID,0,VALID,23.7988,VALID,131,VALID,1.94648,
2009-08-31, 00:32:04,VALID,1001.03,VALID,0,VALID,80.8511,VALID,0.112286,VALID,23.7793,VALID,139,VALID,1.93047,
2009-08-31, 00:33:04,VALID,1001.02,VALID,0,VALID,81.0495,VALID,0,VALID,23.7597,VALID,144,VALID,1.76953,
2009-08-31, 00:34:04,VALID,1001,VALID,0,VALID,80.9884,VALID,0,VALID,23.7597,VALID,152,VALID,2.01758,
2009-08-31, 00:35:04,VALID,1000.94,VALID,0,VALID,80.996,VALID,0,VALID,23.7597,VALID,138,VALID,1.46367,
2009-08-31, 00:36:04,VALID,1000.94,VALID,0,VALID,80.996,VALID,0,VALID,23.7793,VALID,139,VALID,1.55352,
2009-08-31, 00:37:04,VALID,1000.92,VALID,0,VALID,81.2249,VALID,0,VALID,23.7402,VALID,140,VALID,1.37305,
2009-08-31, 00:38:04,VALID,1000.91,VALID,0,VALID,81.2402,VALID,0,VALID,23.6994,VALID,146,VALID,1.5832,
2009-08-31, 00:39:04,VALID,1000.93,VALID,0,VALID,81.2936,VALID,0,VALID,23.6817,VALID,150,VALID,1.62109,
2009-08-31, 00:40:04,VALID,1000.92,VALID,0,VALID,81.2326,VALID,0,VALID,23.7012,VALID,142,VALID,1.59063,
2009-08-31, 00:41:04,VALID,1000.88,VALID,0,VALID,81.1334,VALID,0,VALID,23.7012,VALID,154,VALID,1.46367,
2009-08-31, 00:42:04,VALID,1000.89,VALID,0,VALID,81.1181,VALID,0,VALID,23.7012,VALID,159,VALID,1.47734,
2009-08-31, 00:43:04,VALID,1000.9,VALID,0,VALID,81.1715,VALID,0,VALID,23.6994,VALID,154,VALID,1.01758,
2009-08-31, 00:44:04,VALID,1000.89,VALID,0,VALID,81.1105,VALID,0,VALID,23.6817,VALID,147,VALID,1.82109,
2009-08-31, 00:45:04,VALID,1000.87,VALID,0,VALID,80.6985,VALID,0,VALID,23.7012,VALID,155,VALID,1.98672,
2009-08-31, 00:46:04,VALID,1000.86,VALID,0,VALID,80.7366,VALID,0,VALID,23.7597,VALID,160,VALID,1.59141,
2009-08-31, 00:47:04,VALID,1000.88,VALID,0,VALID,80.8053,VALID,0,VALID,23.7402,VALID,147,VALID,1.19531,
2009-08-31, 00:48:04,VALID,1000.85,VALID,0,VALID,80.6832,VALID,0,VALID,23.7207,VALID,142,VALID,1.42461,
2009-08-31, 00:49:04,VALID,1000.85,VALID,0,VALID,80.5993,VALID,0,VALID,23.7207,VALID,144,VALID,1.99961,
2009-08-31, 00:50:04,VALID,1000.81,VALID,0,VALID,80.5612,VALID,0,VALID,23.7207,VALID,145,VALID,1.51758,
2009-08-31, 00:51:04,VALID,1000.83,VALID,0,VALID,80.4925,VALID,0,VALID,23.7189,VALID,150,VALID,1.66602,
2009-08-31, 00:52:04,VALID,1000.81,VALID,0,VALID,80.7443,VALID,0,VALID,23.7207,VALID,155,VALID,1.5082,
2009-08-31, 00:53:04,VALID,1000.81,VALID,0,VALID,80.9121,VALID,0,VALID,23.6817,VALID,149,VALID,1.2918,
2009-08-31, 00:54:04,VALID,1000.81,VALID,0,VALID,81.0723,VALID,0,VALID,23.6427,VALID,161,VALID,1.63789,
2009-08-31, 00:55:04,VALID,1000.81,VALID,0,VALID,80.935,VALID,0,VALID,23.6232,VALID,160,VALID,1.56289,
2009-08-31, 00:56:04,VALID,1000.81,VALID,0,VALID,80.8663,VALID,0,VALID,23.6232,VALID,163,VALID,1.36406,
2009-08-31, 00:57:04,VALID,1000.78,VALID,0,VALID,80.8663,VALID,0,VALID,23.6232,VALID,175,VALID,1.40469,
2009-08-31, 00:58:04,VALID,1000.82,VALID,0,VALID,80.729,VALID,0,VALID,23.6232,VALID,146,VALID,1.6,
2009-08-31, 00:59:04,VALID,1000.81,VALID,0,VALID,80.6222,VALID,0,VALID,23.6427,VALID,143,VALID,1.72266,
2009-08-31, 01:00:04,VALID,1000.76,VALID,0,VALID,80.6756,VALID,0,VALID,23.6232,VALID,143,VALID,1.49023,
2009-08-31, 01:01:04,VALID,1000.76,VALID,0,VALID,80.8282,VALID,0,VALID,23.6036,VALID,144,VALID,1.29766,
2009-08-31, 01:02:04,VALID,1000.78,VALID,0,VALID,81.0266,VALID,0,VALID,23.5841,VALID,147,VALID,1.39727,
2009-08-31, 01:03:04,VALID,1000.73,VALID,0,VALID,80.9808,VALID,0,VALID,23.5451,VALID,141,VALID,1.44609,
2009-08-31, 01:04:04,VALID,1000.72,VALID,0,VALID,80.7366,VALID,0,VALID,23.5646,VALID,133,VALID,1.6293,
2009-08-31, 01:05:04,VALID,1000.71,VALID,0,VALID,80.5764,VALID,0,VALID,23.5859,VALID,131,VALID,1.28828,
2009-08-31, 01:06:04,VALID,1000.71,VALID,0,VALID,80.6375,VALID,0,VALID,23.5646,VALID,128,VALID,1.39766,
2009-08-31, 01:07:04,VALID,1000.71,VALID,0,VALID,80.6298,VALID,0,VALID,23.5646,VALID,147,VALID,1.75508,
2009-08-31, 01:08:04,VALID,1000.7,VALID,0,VALID,80.7214,VALID,0,VALID,23.5646,VALID,143,VALID,1.47852,
2009-08-31, 01:09:04,VALID,1000.74,VALID,0,VALID,80.79,VALID,0,VALID,23.5646,VALID,129,VALID,1.44219,
2009-08-31, 01:10:04,VALID,1000.73,VALID,0,VALID,81.0571,VALID,0,VALID,23.5256,VALID,136,VALID,1.16875,
2009-08-31, 01:11:04,VALID,1000.72,VALID,0,VALID,81.1257,VALID,0,VALID,23.4866,VALID,146,VALID,1.06016,
2009-08-31, 01:12:04,VALID,1000.74,VALID,0,VALID,81.2707,VALID,0,VALID,23.4475,VALID,133,VALID,0.941797,
2009-08-31, 01:13:04,VALID,1000.72,VALID,0,VALID,81.2478,VALID,0,VALID,23.4475,VALID,146,VALID,0.944922,
2009-08-31, 01:14:04,VALID,1000.71,VALID,0,VALID,81.1944,VALID,0,VALID,23.428,VALID,149,VALID,1.09023,
2009-08-31, 01:15:04,VALID,1000.74,VALID,0,VALID,81.141,VALID,0,VALID,23.4085,VALID,128,VALID,1.56523,
2009-08-31, 01:16:04,VALID,1000.71,VALID,0,VALID,81.1944,VALID,0,VALID,23.4085,VALID,141,VALID,0.976172,
2009-08-31, 01:17:04,VALID,1000.76,VALID,0,VALID,81.2783,VALID,0,VALID,23.389,VALID,147,VALID,1.0875,
2009-08-31, 01:18:04,VALID,1000.78,VALID,0,VALID,81.2555,VALID,0,VALID,23.389,VALID,142,VALID,0.849609,
2009-08-31, 01:19:04,VALID,1000.75,VALID,0,VALID,81.1639,VALID,0,VALID,23.4085,VALID,142,VALID,0.804688,
2009-08-31, 01:20:04,VALID,1000.74,VALID,0,VALID,81.3089,VALID,0,VALID,23.4085,VALID,120,VALID,0.776563,
2009-08-31, 01:21:04,VALID,1000.74,VALID,0,VALID,81.5301,VALID,0,VALID,23.3695,VALID,120,VALID,0.588672,
2009-08-31, 01:22:04,VALID,1000.77,VALID,0,VALID,81.8124,VALID,0,VALID,23.311,VALID,141,VALID,1.13789,
2009-08-31, 01:23:04,VALID,1000.74,VALID,0,VALID,81.8582,VALID,0,VALID,23.311,VALID,132,VALID,1.14922,
2009-08-31, 01:24:04,VALID,1000.75,VALID,0,VALID,81.9879,VALID,0,VALID,23.2719,VALID,135,VALID,1.00547,
2009-08-31, 01:25:04,VALID,1000.73,VALID,0,VALID,82.2244,VALID,0,VALID,23.2312,VALID,129,VALID,0.870703,
2009-08-31, 01:26:04,VALID,1000.7,VALID,0,VALID,82.3389,VALID,0,VALID,23.2134,VALID,130,VALID,1.28008,
2009-08-31, 01:27:04,VALID,1000.72,VALID,0,VALID,82.3541,VALID,0,VALID,23.1939,VALID,140,VALID,1.00273,
2009-08-31, 01:28:04,VALID,1000.68,VALID,0,VALID,82.1634,VALID,0,VALID,23.2152,VALID,139,VALID,1.1125,
2009-08-31, 01:29:04,VALID,1000.68,VALID,0,VALID,81.8887,VALID,0,VALID,23.2347,VALID,140,VALID,1.47383,
2009-08-31, 01:30:04,VALID,1000.69,VALID,0,VALID,81.7666,VALID,0,VALID,23.2737,VALID,134,VALID,1.20898,
2009-08-31, 01:31:04,VALID,1000.66,VALID,0,VALID,81.8429,VALID,0,VALID,23.2932,VALID,135,VALID,0.748047,
2009-08-31, 01:32:04,VALID,1000.66,VALID,0,VALID,81.9726,VALID,0,VALID,23.2932,VALID,136,VALID,0.745703,
2009-08-31, 01:33:04,VALID,1000.65,VALID,0,VALID,81.9955,VALID,0,VALID,23.2737,VALID,137,VALID,0.574219,
2009-08-31, 01:34:04,VALID,1000.68,VALID,0,VALID,81.8582,VALID,0,VALID,23.2524,VALID,137,VALID,0.485547,
2009-08-31, 01:35:04,VALID,1000.69,VALID,0,VALID,81.904,VALID,0,VALID,23.2737,VALID,137,VALID,0.371094,
2009-08-31, 01:36:04,VALID,1000.65,VALID,0,VALID,81.8887,VALID,0,VALID,23.2542,VALID,137,VALID,0.532812,
2009-08-31, 01:37:04,VALID,1000.67,VALID,0,VALID,81.82,VALID,0,VALID,23.2542,VALID,137,VALID,0.396875,
2009-08-31, 01:38:04,VALID,1000.66,VALID,0,VALID,81.7666,VALID,0,VALID,23.2542,VALID,138,VALID,0.437891,
2009-08-31, 01:39:04,VALID,1000.69,VALID,0,VALID,81.5988,VALID,0,VALID,23.2542,VALID,139,VALID,0.494141,
2009-08-31, 01:40:04,VALID,1000.66,VALID,0,VALID,81.2936,VALID,0,VALID,23.3127,VALID,140,VALID,0.292188,
2009-08-31, 01:41:04,VALID,1000.68,VALID,0,VALID,80.9732,VALID,0,VALID,23.3518,VALID,140,VALID,0.255469,
2009-08-31, 01:42:04,VALID,1000.65,VALID,0,VALID,80.8663,VALID,0,VALID,23.3713,VALID,140,VALID,0.267188,
2009-08-31, 01:43:04,VALID,1000.65,VALID,0,VALID,80.7824,VALID,0,VALID,23.3482,VALID,140,VALID,0.0960938,
2009-08-31, 01:44:04,VALID,1000.64,VALID,0,VALID,81.1029,VALID,0.112286,VALID,23.3482,VALID,140,VALID,0.179688,
2009-08-31, 01:45:04,VALID,1000.67,VALID,0,VALID,81.1257,VALID,0,VALID,23.3092,VALID,140,VALID,0,
2009-08-31, 01:46:04,VALID,1000.66,VALID,0,VALID,81.2402,VALID,0.112286,VALID,23.2915,VALID,140,VALID,0.127734,
2009-08-31, 01:47:04,VALID,1000.67,VALID,0,VALID,81.2631,VALID,0.112286,VALID,23.2915,VALID,140,VALID,0.177734,
2009-08-31, 01:48:04,VALID,1000.65,VALID,0,VALID,81.4843,VALID,0,VALID,23.2719,VALID,140,VALID,0.0285156,
2009-08-31, 01:49:04,VALID,1000.67,VALID,0,VALID,82.2626,VALID,0,VALID,23.1921,VALID,140,VALID,0.20625,
2009-08-31, 01:50:04,VALID,1000.65,VALID,0,VALID,82.6517,VALID,0,VALID,23.0946,VALID,140,VALID,0,
2009-08-31, 01:51:04,VALID,1000.68,VALID,0,VALID,83.1857,VALID,0,VALID,23.0183,VALID,140,VALID,0.0367187,
2009-08-31, 01:52:04,VALID,1000.69,VALID,0,VALID,83.5291,VALID,0,VALID,22.919,VALID,140,VALID,0.15,
2009-08-31, 01:53:04,VALID,1000.69,VALID,0,VALID,83.6817,VALID,0,VALID,22.8818,VALID,140,VALID,0.357812,
2009-08-31, 01:54:04,VALID,1000.67,VALID,0,VALID,83.8419,VALID,0.112286,VALID,22.841,VALID,140,VALID,0.554688,
2009-08-31, 01:55:04,VALID,1000.7,VALID,0,VALID,83.7351,VALID,0,VALID,22.841,VALID,140,VALID,0.630078,
2009-08-31, 01:56:04,VALID,1000.68,VALID,0,VALID,83.4299,VALID,0.112286,VALID,22.88,VALID,140,VALID,0.519922,
2009-08-31, 01:57:04,VALID,1000.71,VALID,0,VALID,83.2163,VALID,0.112286,VALID,22.9385,VALID,140,VALID,0.496484,
2009-08-31, 01:58:04,VALID,1000.73,VALID,0,VALID,82.8806,VALID,0,VALID,23.0006,VALID,140,VALID,0.638281,
2009-08-31, 01:59:04,VALID,1000.72,VALID,0,VALID,82.5525,VALID,0,VALID,23.0591,VALID,140,VALID,0.623047,
2009-08-31, 02:00:04,VALID,1000.75,VALID,0,VALID,82.4991,VALID,0,VALID,23.0981,VALID,143,VALID,0.497266,
2009-08-31, 02:01:04,VALID,1000.78,VALID,0,VALID,82.8577,VALID,0,VALID,23.0981,VALID,143,VALID,0.384375,
2009-08-31, 02:02:04,VALID,1000.74,VALID,0,VALID,84.0937,VALID,0,VALID,23.0378,VALID,119,VALID,0.642969,
2009-08-31, 02:03:04,VALID,1000.77,VALID,0,VALID,84.3836,VALID,0,VALID,23.0396,VALID,113,VALID,0.524609,
2009-08-31, 02:04:04,VALID,1000.76,VALID,0,VALID,84.6888,VALID,0,VALID,23.0201,VALID,113,VALID,0.328906,
2009-08-31, 02:05:04,VALID,1000.79,VALID,0,VALID,84.8795,VALID,0,VALID,22.9811,VALID,113,VALID,0.3875,
2009-08-31, 02:06:04,VALID,1000.76,VALID,0,VALID,84.9177,VALID,0,VALID,22.9598,VALID,113,VALID,0.292578,
2009-08-31, 02:07:04,VALID,1000.78,VALID,0,VALID,85.0321,VALID,0,VALID,22.942,VALID,113,VALID,0.153516,
2009-08-31, 02:08:04,VALID,1000.78,VALID,0,VALID,85.1084,VALID,0,VALID,22.9013,VALID,113,VALID,0.210156,
2009-08-31, 02:09:04,VALID,1000.75,VALID,0,VALID,85.1694,VALID,0,VALID,22.9225,VALID,113,VALID,0.112891,
2009-08-31, 02:10:04,VALID,1000.78,VALID,0,VALID,84.9558,VALID,0,VALID,22.8623,VALID,113,VALID,0.166016,
2009-08-31, 02:11:04,VALID,1000.75,VALID,0,VALID,84.6125,VALID,0,VALID,22.8835,VALID,113,VALID,0.187891,
2009-08-31, 02:12:04,VALID,1000.75,VALID,0,VALID,84.5743,VALID,0,VALID,22.8623,VALID,113,VALID,0.0140625,
2009-08-31, 02:13:04,VALID,1000.72,VALID,0,VALID,84.788,VALID,0,VALID,22.9225,VALID,113,VALID,0.278516,
2009-08-31, 02:14:04,VALID,1000.74,VALID,0,VALID,84.994,VALID,0,VALID,22.903,VALID,113,VALID,0.316797,
2009-08-31, 02:15:04,VALID,1000.73,VALID,0,VALID,85.1389,VALID,0,VALID,22.864,VALID,127,VALID,0.442578,
2009-08-31, 02:16:04,VALID,1000.72,VALID,0,VALID,84.498,VALID,0,VALID,22.8445,VALID,184,VALID,1.02031,
2009-08-31, 02:17:04,VALID,1000.71,VALID,0,VALID,83.7122,VALID,0,VALID,22.8445,VALID,164,VALID,0.8,
2009-08-31, 02:18:04,VALID,1000.74,VALID,0,VALID,83.2315,VALID,0,VALID,22.8623,VALID,164,VALID,0.748047,
2009-08-31, 02:19:04,VALID,1000.74,VALID,0,VALID,83.0179,VALID,0,VALID,22.942,VALID,162,VALID,0.630859,
2009-08-31, 02:20:04,VALID,1000.72,VALID,0,VALID,83.0103,VALID,0,VALID,22.9615,VALID,141,VALID,0.589844,
2009-08-31, 02:21:04,VALID,1000.7,VALID,0,VALID,83.14,VALID,0,VALID,22.942,VALID,141,VALID,0.279687,
2009-08-31, 02:22:04,VALID,1000.73,VALID,0,VALID,83.552,VALID,0,VALID,22.8818,VALID,141,VALID,0.203125,
2009-08-31, 02:23:04,VALID,1000.73,VALID,0,VALID,83.88,VALID,0,VALID,22.8232,VALID,141,VALID,0.217578,
2009-08-31, 02:24:04,VALID,1000.72,VALID,0,VALID,84.3531,VALID,0,VALID,22.786,VALID,141,VALID,0,
2009-08-31, 02:25:04,VALID,1000.71,VALID,0,VALID,84.643,VALID,0,VALID,22.7079,VALID,79,VALID,0.547656,
2009-08-31, 02:26:04,VALID,1000.68,VALID,0,VALID,85.528,VALID,0,VALID,22.5909,VALID,79,VALID,0.351563,
2009-08-31, 02:27:04,VALID,1000.71,VALID,0,VALID,85.5967,VALID,0,VALID,22.4738,VALID,79,VALID,0.428125,
2009-08-31, 02:28:04,VALID,1000.7,VALID,0,VALID,86.2834,VALID,0,VALID,22.3958,VALID,79,VALID,0.3625,
2009-08-31, 02:29:04,VALID,1000.65,VALID,0,VALID,86.7946,VALID,0,VALID,22.2983,VALID,79,VALID,0.235938,
2009-08-31, 02:30:04,VALID,1000.66,VALID,0,VALID,87.1074,VALID,0,VALID,22.2397,VALID,79,VALID,0.245703,
2009-08-31, 02:31:04,VALID,1000.67,VALID,0,VALID,87.6338,VALID,0,VALID,22.2007,VALID,79,VALID,0.147656,
2009-08-31, 02:32:04,VALID,1000.67,VALID,0,VALID,87.8169,VALID,0,VALID,22.1812,VALID,79,VALID,0,
2009-08-31, 02:33:04,VALID,1000.64,VALID,0,VALID,87.939,VALID,0,VALID,22.1422,VALID,79,VALID,0,
2009-08-31, 02:34:04,VALID,1000.67,VALID,0,VALID,88.1679,VALID,0,VALID,22.1015,VALID,79,VALID,0.0671875,
2009-08-31, 02:35:04,VALID,1000.68,VALID,0,VALID,88.3434,VALID,0,VALID,22.1032,VALID,79,VALID,0.358984,
2009-08-31, 02:36:04,VALID,1000.65,VALID,0,VALID,88.4044,VALID,0,VALID,22.1032,VALID,79,VALID,0.450781,
2009-08-31, 02:37:04,VALID,1000.67,VALID,0,VALID,88.4731,VALID,0,VALID,22.0625,VALID,79,VALID,0.308203,
2009-08-31, 02:38:04,VALID,1000.67,VALID,0,VALID,88.412,VALID,0,VALID,22.0235,VALID,79,VALID,0.333594,
2009-08-31, 02:39:04,VALID,1000.64,VALID,0,VALID,89.0071,VALID,0,VALID,21.9845,VALID,79,VALID,0.227734,
2009-08-31, 02:40:04,VALID,1000.67,VALID,0,VALID,89.3123,VALID,0,VALID,22.0057,VALID,79,VALID,0.427344,
2009-08-31, 02:41:04,VALID,1000.65,VALID,0,VALID,89.3047,VALID,0,VALID,22.0252,VALID,79,VALID,0.486719,
2009-08-31, 02:42:04,VALID,1000.63,VALID,0,VALID,89.5107,VALID,0,VALID,22.0447,VALID,79,VALID,0.773828,
2009-08-31, 02:43:04,VALID,1000.62,VALID,0,VALID,89.7549,VALID,0,VALID,22.0837,VALID,62,VALID,1.03359,
2009-08-31, 02:44:04,VALID,1000.64,VALID,0,VALID,89.4497,VALID,0,VALID,22.1422,VALID,62,VALID,0.991797,
2009-08-31, 02:45:04,VALID,1000.61,VALID,0,VALID,89.1368,VALID,0,VALID,22.1422,VALID,61,VALID,1.06836,
2009-08-31, 02:46:04,VALID,1000.61,VALID,0,VALID,88.9919,VALID,0,VALID,22.1422,VALID,69,VALID,0.938281,
2009-08-31, 02:47:04,VALID,1000.6,VALID,0,VALID,89.4039,VALID,0,VALID,22.1227,VALID,60,VALID,0.970703,
2009-08-31, 02:48:04,VALID,1000.59,VALID,0,VALID,89.175,VALID,0,VALID,22.0625,VALID,60,VALID,0.659766,
2009-08-31, 02:49:04,VALID,1000.59,VALID,0,VALID,89.6786,VALID,0,VALID,22.0447,VALID,53,VALID,1.07578,
2009-08-31, 02:50:04,VALID,1000.6,VALID,0,VALID,89.7549,VALID,0,VALID,22.0057,VALID,41,VALID,1.03633,
2009-08-31, 02:51:04,VALID,1000.6,VALID,0,VALID,89.9227,VALID,0,VALID,21.926,VALID,40,VALID,0.875,
2009-08-31, 02:52:04,VALID,1000.58,VALID,0,VALID,89.9914,VALID,0,VALID,21.8887,VALID,34,VALID,0.866406,
2009-08-31, 02:53:04,VALID,1000.55,VALID,0,VALID,89.9914,VALID,0,VALID,21.809,VALID,34,VALID,0.754687,
2009-08-31, 02:54:04,VALID,1000.53,VALID,0,VALID,90.0906,VALID,0,VALID,21.77,VALID,34,VALID,0.734766,
2009-08-31, 02:55:04,VALID,1000.53,VALID,0,VALID,90.2203,VALID,0,VALID,21.7326,VALID,34,VALID,0.585156,
2009-08-31, 02:56:04,VALID,1000.53,VALID,0,VALID,90.2126,VALID,0,VALID,21.6936,VALID,34,VALID,0.327734,
2009-08-31, 02:57:04,VALID,1000.54,VALID,0,VALID,90.5636,VALID,0,VALID,21.6335,VALID,34,VALID,0.455078,
2009-08-31, 02:58:04,VALID,1000.55,VALID,0,VALID,90.7238,VALID,0,VALID,21.6741,VALID,34,VALID,0.465234,
2009-08-31, 02:59:04,VALID,1000.55,VALID,0,VALID,90.8077,VALID,0,VALID,21.653,VALID,34,VALID,0.45,
2009-08-31, 03:00:04,VALID,1000.53,VALID,0,VALID,90.5407,VALID,0,VALID,21.692,VALID,90,VALID,0.532422,
2009-08-31, 03:01:04,VALID,1000.53,VALID,0,VALID,90.1974,VALID,0,VALID,21.7326,VALID,140,VALID,0.652344,
2009-08-31, 03:02:04,VALID,1000.48,VALID,0,VALID,89.999,VALID,0,VALID,21.7521,VALID,157,VALID,1.24258,
2009-08-31, 03:03:04,VALID,1000.5,VALID,0,VALID,89.3505,VALID,0,VALID,21.9082,VALID,154,VALID,1.11484,
2009-08-31, 03:04:04,VALID,1000.49,VALID,0,VALID,87.9161,VALID,0,VALID,22.1617,VALID,157,VALID,1.72383,
2009-08-31, 03:05:04,VALID,1000.52,VALID,0,VALID,86.0163,VALID,0,VALID,22.4543,VALID,146,VALID,1.36992,
2009-08-31, 03:06:04,VALID,1000.52,VALID,0,VALID,84.8032,VALID,0,VALID,22.6494,VALID,149,VALID,1.15117,
2009-08-31, 03:07:04,VALID,1000.54,VALID,0,VALID,83.9411,VALID,0,VALID,22.786,VALID,150,VALID,1.36055,
2009-08-31, 03:08:04,VALID,1000.51,VALID,0,VALID,83.3002,VALID,0,VALID,22.942,VALID,144,VALID,0.777344,
2009-08-31, 03:09:04,VALID,1000.52,VALID,0,VALID,82.7203,VALID,0,VALID,23.0201,VALID,153,VALID,0.833203,
2009-08-31, 03:10:04,VALID,1000.54,VALID,0,VALID,82.522,VALID,0,VALID,23.0786,VALID,150,VALID,1.01055,
2009-08-31, 03:11:04,VALID,1000.53,VALID,0,VALID,82.1329,VALID,0,VALID,23.0964,VALID,150,VALID,1.43594,
2009-08-31, 03:12:04,VALID,1000.54,VALID,0,VALID,81.9803,VALID,0,VALID,23.1549,VALID,150,VALID,1.09805,
2009-08-31, 03:13:04,VALID,1000.53,VALID,0,VALID,81.7743,VALID,0,VALID,23.2152,VALID,147,VALID,1.21328,
2009-08-31, 03:14:04,VALID,1000.52,VALID,0,VALID,81.6674,VALID,0,VALID,23.2329,VALID,141,VALID,1.05469,
2009-08-31, 03:15:04,VALID,1000.51,VALID,0,VALID,81.4309,VALID,0,VALID,23.2737,VALID,136,VALID,2.25391,
2009-08-31, 03:16:04,VALID,1000.52,VALID,0,VALID,81.3089,VALID,0,VALID,23.3323,VALID,136,VALID,2.02422,
2009-08-31, 03:17:04,VALID,1000.54,VALID,0,VALID,81.3623,VALID,0,VALID,23.3518,VALID,155,VALID,1.3918,
2009-08-31, 03:18:04,VALID,1000.54,VALID,0,VALID,81.4004,VALID,0,VALID,23.3518,VALID,141,VALID,1.28906,
2009-08-31, 03:19:04,VALID,1000.57,VALID,0,VALID,81.5378,VALID,0,VALID,23.3323,VALID,148,VALID,1.11602,
2009-08-31, 03:20:04,VALID,1000.58,VALID,0,VALID,81.3928,VALID,0,VALID,23.3127,VALID,146,VALID,1.36523,
2009-08-31, 03:21:04,VALID,1000.59,VALID,0,VALID,81.3546,VALID,0,VALID,23.3305,VALID,154,VALID,1.30234,
2009-08-31, 03:22:04,VALID,1000.59,VALID,0,VALID,81.1868,VALID,0,VALID,23.3713,VALID,147,VALID,1.29102,
2009-08-31, 03:23:04,VALID,1000.53,VALID,0,VALID,81.0647,VALID,0,VALID,23.3908,VALID,145,VALID,1.57344,
2009-08-31, 03:24:04,VALID,1000.57,VALID,0,VALID,80.874,VALID,0,VALID,23.4493,VALID,142,VALID,1.75742,
2009-08-31, 03:25:04,VALID,1000.58,VALID,0,VALID,80.9121,VALID,0,VALID,23.4493,VALID,143,VALID,1.88242,
2009-08-31, 03:26:04,VALID,1000.56,VALID,0,VALID,81.0266,VALID,0,VALID,23.4085,VALID,137,VALID,1.91133,
2009-08-31, 03:27:04,VALID,1000.6,VALID,0,VALID,81.3775,VALID,0,VALID,23.4103,VALID,139,VALID,1.27734,
2009-08-31, 03:28:04,VALID,1000.59,VALID,0,VALID,81.5454,VALID,0,VALID,23.3518,VALID,144,VALID,1.2918,
2009-08-31, 03:29:04,VALID,1000.62,VALID,0,VALID,81.6522,VALID,0,VALID,23.311,VALID,153,VALID,0.910156,
2009-08-31, 03:30:04,VALID,1000.59,VALID,0,VALID,81.6751,VALID,0,VALID,23.2932,VALID,150,VALID,1.62305,
2009-08-31, 03:31:04,VALID,1000.58,VALID,0,VALID,81.7972,VALID,0,VALID,23.3127,VALID,162,VALID,1.28984,
2009-08-31, 03:32:04,VALID,1000.56,VALID,0,VALID,81.8353,VALID,0,VALID,23.2737,VALID,156,VALID,1.62812,
2009-08-31, 03:33:04,VALID,1000.56,VALID,0,VALID,81.8429,VALID,0,VALID,23.2932,VALID,144,VALID,1.38242,
2009-08-31, 03:34:04,VALID,1000.57,VALID,0,VALID,81.8506,VALID,0,VALID,23.2737,VALID,146,VALID,1.47734,
2009-08-31, 03:35:04,VALID,1000.56,VALID,0,VALID,81.8963,VALID,0,VALID,23.2737,VALID,150,VALID,1.44375,
2009-08-31, 03:36:04,VALID,1000.59,VALID,0,VALID,81.8048,VALID,0,VALID,23.2737,VALID,160,VALID,1.33984,
2009-08-31, 03:37:04,VALID,1000.6,VALID,0,VALID,81.6598,VALID,0,VALID,23.3127,VALID,156,VALID,2.00156,
2009-08-31, 03:38:04,VALID,1000.59,VALID,0,VALID,81.5835,VALID,0,VALID,23.3518,VALID,151,VALID,1.2043,
2009-08-31, 03:39:04,VALID,1000.6,VALID,0,VALID,81.408,VALID,0,VALID,23.3713,VALID,144,VALID,1.47656,
2009-08-31, 03:40:04,VALID,1000.64,VALID,0,VALID,81.202,VALID,0,VALID,23.3908,VALID,149,VALID,1.50781,
2009-08-31, 03:41:04,VALID,1000.61,VALID,0,VALID,81.2707,VALID,0,VALID,23.4103,VALID,146,VALID,1.55977,
2009-08-31, 03:42:04,VALID,1000.67,VALID,0,VALID,81.3241,VALID,0,VALID,23.4103,VALID,168,VALID,1.14063,
2009-08-31, 03:43:04,VALID,1000.65,VALID,0,VALID,81.2936,VALID,0,VALID,23.3908,VALID,152,VALID,1.59766,
2009-08-31, 03:44:04,VALID,1000.67,VALID,0,VALID,81.1486,VALID,0,VALID,23.389,VALID,146,VALID,1.8668,
2009-08-31, 03:45:04,VALID,1000.68,VALID,0,VALID,81.1257,VALID,0,VALID,23.4298,VALID,146,VALID,1.10469,